Content
SEND FEEDBACK

United States of America Flag

BAYSIDE, NEW YORK


Home > North America > United States > New York
Elevation: 11 feet     Latitude: 40 46N     Longitude: 073 54W

WEATHER
 
SELECT A DAY
Number of Records: 207,993;   Date Range: 1/1/95 - 3/22/16
 
SHARE

PRINT THIS DATA

[ ← Previous Day ]
WEATHER ALMANAC - MAY 15, 2013
[ Next Day → ]
[ °C ]   °F
Weather ElementAverageHighLow
Temperature61.2 °F69.1 °F (10:51 pm)54 °F (2:51 am)
Dewpoint45.1 °F57 °F (10:51 pm)28 °F (1:51 am)
Humidity56.1 %70 % (12:51 pm)35 % (1:51 am)
Barometer29.87 in30.06 in (1:51 am)29.68 in (7:51 pm)
Wind Speed10.2 mph18.4 mph (10:51 am)
Wind Gust26.5 mph (1:51 pm)
Weather ElementAverage
Visibility10 mi
Wind DirectionS (180 °)

Weather ElementTotal
Precipitation0.02 in
Heating Degree Days3.5 (Base 65)
Growing Degree Days11.6 (Base 50)
Averaged from 23 records on May 15, 2013
WEATHER CONDITIONS BREAKOUT
WIND DIRECTION BREAKOUT
WEATHER BY HOUR - MAY 15, 2013
[ °C ]   °F
Local TimeTemperatureDewpointHumidityBarometerVisibilityWind DirectionWind SpeedGust SpeedPrecipitationEventsConditions
1:51 AM55.0 °F28.0 °F35 %30.06 in10.0 miSSW (210°)5.8 mphPartly Cloudy
2:51 AM54.0 °F28.9 °F38 %30.04 in10.0 miSSW (200°)5.8 mphMostly Cloudy
3:51 AM54.0 °F30.0 °F40 %30.04 in10.0 miSSW (210°)6.9 mphMostly Cloudy
4:51 AM54.0 °F37.0 °F53 %30.04 in10.0 miSSW (210°)8.1 mphOvercast
5:51 AM55.0 °F39.0 °F55 %30.03 in10.0 miSSW (200°)5.8 mphMostly Cloudy
6:51 AM55.0 °F41.0 °F59 %30.03 in10.0 miSouth (180°)6.9 mphOvercast
7:51 AM55.9 °F42.1 °F60 %30.01 in10.0 miSouth (180°)8.1 mphMostly Cloudy
8:51 AM59.0 °F39.9 °F49 %30.01 in10.0 miSouth (190°)10.4 mphMostly Cloudy
9:51 AM61.0 °F39.0 °F44 %29.97 in10.0 miSouth (180°)17.3 mph24.2 mphMostly Cloudy
10:51 AM61.0 °F39.0 °F44 %29.96 in10.0 miSSE (160°)18.4 mph24.2 mphOvercast
11:51 AM60.1 °F41.0 °F49 %29.95 in10.0 miSouth (170°)12.7 mph21.9 mph0.00 inOvercast
12:51 PM61.0 °F51.1 °F70 %29.88 in10.0 miSSE (160°)18.4 mph24.2 mph0.00 inRainLight Rain
1:51 PM62.1 °F50.0 °F65 %29.87 in10.0 miSouth (190°)17.3 mph26.5 mph0.00 inMostly Cloudy
2:51 PM61.0 °F51.1 °F70 %29.84 in10.0 miSSE (160°)15.0 mph18.4 mphMostly Cloudy
3:51 PM63.0 °F50.0 °F63 %29.76 in10.0 miSouth (180°)15.0 mphMostly Cloudy
4:51 PM66.0 °F52.0 °F60 %29.72 in10.0 miSouth (180°)12.7 mph18.4 mphMostly Cloudy
5:51 PM66.9 °F51.1 °F57 %29.70 in10.0 miSSE (160°)11.5 mphScattered Clouds
6:51 PM64.9 °F53.1 °F65 %29.70 in10.0 miSouth (180°)8.1 mphScattered Clouds
7:51 PM66.9 °F53.1 °F61 %29.68 in10.0 miVariable5.8 mphScattered Clouds
8:51 PM66.9 °F54.0 °F63 %29.69 in10.0 miSouth (190°)5.8 mphScattered Clouds
9:51 PM66.9 °F54.0 °F63 %29.69 in10.0 miSSE (150°)4.6 mphMostly Cloudy
10:51 PM69.1 °F57.0 °F65 %29.72 in10.0 miWSW (250°)5.8 mph0.02 inMostly Cloudy
11:51 PM69.1 °F55.9 °F63 %29.71 in10.0 miWSW (250°)8.1 mphMostly Cloudy
Hourly data recorded from KLGA, located miles away from Bayside, New York




STORIES FROM OUR PARTNERS